TimeEST,TemperatureF,Dew PointF,Humidity,Sea Level PressureIn,VisibilityMPH,Wind Direction,Wind SpeedMPH,Gust SpeedMPH,PrecipitationIn,Events,Conditions,WindDirDegrees,DateUTC
12:53 AM,39.0,28.0,65,30.39,10.0,ENE,4.6,-,N/A,,Clear,60,2013-01-08 05:53:00
1:53 AM,36.0,27.0,70,30.39,10.0,NE,3.5,-,N/A,,Clear,40,2013-01-08 06:53:00
2:53 AM,36.0,28.0,73,30.39,10.0,North,4.6,-,N/A,,Clear,10,2013-01-08 07:53:00
3:53 AM,35.1,27.0,72,30.38,10.0,North,5.8,-,N/A,,Clear,10,2013-01-08 08:53:00
4:53 AM,35.1,27.0,72,30.38,10.0,Calm,Calm,-,N/A,,Clear,0,2013-01-08 09:53:00
5:53 AM,36.0,28.0,73,30.40,10.0,North,5.8,-,N/A,,Clear,360,2013-01-08 10:53:00
6:53 AM,35.1,28.0,76,30.40,10.0,NNE,9.2,-,N/A,,Partly Cloudy,20,2013-01-08 11:53:00
7:53 AM,36.0,28.0,73,30.41,10.0,NNE,8.1,-,N/A,,Mostly Cloudy,20,2013-01-08 12:53:00
8:53 AM,37.9,28.9,70,30.44,10.0,NNE,8.1,-,N/A,,Mostly Cloudy,20,2013-01-08 13:53:00
9:53 AM,43.0,30.0,60,30.45,10.0,NE,6.9,-,N/A,,Mostly Cloudy,40,2013-01-08 14:53:00
10:53 AM,45.0,30.9,58,30.46,10.0,NE,6.9,-,N/A,,Overcast,50,2013-01-08 15:53:00
11:41 AM,46.4,30.2,53,30.44,10.0,East,5.8,-,N/A,,Overcast,90,2013-01-08 16:41:00
11:53 AM,46.0,30.9,56,30.45,10.0,East,4.6,-,N/A,,Overcast,90,2013-01-08 16:53:00
12:53 PM,48.0,32.0,54,30.41,10.0,East,3.5,-,N/A,,Overcast,90,2013-01-08 17:53:00
1:53 PM,50.0,33.1,52,30.39,10.0,North,3.5,-,N/A,,Overcast,10,2013-01-08 18:53:00
2:53 PM,51.1,35.1,54,30.37,10.0,ENE,3.5,-,N/A,,Overcast,60,2013-01-08 19:53:00
3:31 PM,51.8,35.6,54,30.36,10.0,Calm,Calm,-,N/A,,Mostly Cloudy,0,2013-01-08 20:31:00
3:53 PM,52.0,36.0,54,30.37,10.0,Calm,Calm,-,N/A,,Partly Cloudy,0,2013-01-08 20:53:00
4:10 PM,51.8,35.6,54,30.36,10.0,Calm,Calm,-,N/A,,Mostly Cloudy,0,2013-01-08 21:10:00
4:25 PM,51.8,35.6,54,30.36,10.0,NE,3.5,-,N/A,,Overcast,40,2013-01-08 21:25:00
4:53 PM,52.0,37.0,57,30.37,10.0,NE,3.5,-,N/A,,Overcast,50,2013-01-08 21:53:00
5:11 PM,51.8,37.4,58,30.36,10.0,NNE,3.5,-,N/A,,Overcast,20,2013-01-08 22:11:00
5:53 PM,51.1,37.9,61,30.38,10.0,East,3.5,-,N/A,,Overcast,90,2013-01-08 22:53:00
6:29 PM,50.0,37.4,62,30.36,10.0,East,5.8,-,N/A,,Overcast,80,2013-01-08 23:29:00
6:53 PM,48.9,37.0,64,30.38,10.0,ENE,5.8,-,N/A,,Scattered Clouds,60,2013-01-08 23:53:00
7:53 PM,48.9,37.0,64,30.39,10.0,NNE,5.8,-,N/A,,Mostly Cloudy,30,2013-01-09 00:53:00
8:53 PM,48.9,37.9,66,30.40,10.0,NE,3.5,-,N/A,,Overcast,50,2013-01-09 01:53:00
9:53 PM,50.0,37.0,61,30.40,10.0,ENE,3.5,-,N/A,,Overcast,60,2013-01-09 02:53:00
10:06 PM,48.2,37.4,66,30.40,10.0,ENE,4.6,-,N/A,,Overcast,70,2013-01-09 03:06:00
10:39 PM,48.2,37.4,66,30.40,10.0,Calm,Calm,-,N/A,,Overcast,0,2013-01-09 03:39:00
10:53 PM,48.9,37.0,64,30.40,10.0,North,3.5,-,N/A,,Overcast,360,2013-01-09 03:53:00
11:53 PM,48.9,37.9,66,30.40,10.0,North,6.9,-,N/A,,Overcast,360,2013-01-09 04:53:00